Location: Washington
(38.8950°N, 77.0370°W)
Time: 12:17:10
(UTC-04:00)

ISS - All Passes

Search period start: 01 October 2014 00:00
Search period end: 11 October 2014 00:00
Orbit: 413 x 416 km, 51.6° (Epoch: 01 October)

Date Brightness Start Highest point End Pass type
(mag) Time Alt. Az. Time Alt. Az. Time Alt. Az.
01 Oct - 00:44:30 10° NW 00:46:12 13° NNW 00:47:53 10° NNE night (unlit)
01 Oct - 03:59:17 10° NNW 04:01:50 20° NNE 04:04:23 10° ENE visible
01 Oct - 05:35:30 10° WNW 05:38:47 61° SW 05:42:03 10° SE visible
01 Oct - 22:16:27 10° SW 22:19:46 87° SE 22:23:06 10° NE night (unlit)
01 Oct - 23:54:34 10° WNW 23:56:50 17° NNW 23:59:07 10° NNE night (unlit)
02 Oct - 03:10:29 10° NNW 03:12:30 15° NNE 03:14:32 10° ENE night (unlit)
02 Oct - 04:46:22 10° NW 04:49:41 71° NE 04:53:00 10° ESE visible
02 Oct - 06:24:58 10° WSW 06:25:57 11° SW 06:26:55 10° SW visible
02 Oct - 21:27:30 10° SSW 21:30:41 45° SE 21:33:53 10° ENE night (unlit)
02 Oct - 23:04:46 10° W 23:07:31 23° NNW 23:10:16 10° NNE night (unlit)
03 Oct - 02:21:44 10° N 02:23:06 12° NNE 02:24:28 10° NE night (unlit)
03 Oct - 03:57:20 10° NW 04:00:30 40° NNE 04:03:40 10° ESE night (unlit)
03 Oct - 05:34:29 10° W 05:37:00 20° SW 05:39:31 10° S visible
03 Oct - 20:38:55 10° S 20:41:39 24° SE 20:44:25 10° ENE visible
03 Oct - 22:15:08 10° W 22:18:14 35° NNW 22:21:20 10° NE night (unlit)
03 Oct - 23:54:33 10° NNW 23:55:42 11° NNW 23:56:51 10° N night (unlit)
04 Oct - 01:33:11 10° N 01:33:38 10° N 01:34:05 10° NNE night (unlit)
04 Oct - 03:08:22 10° NNW 03:11:14 26° NNE 03:14:05 10° E night (unlit)
04 Oct - 04:44:53 10° WNW 04:47:59 37° SW 04:51:04 10° SSE visible
04 Oct - 19:50:58 10° SSE 19:52:39 13° SE 19:54:21 10° E visible
04 Oct - 21:25:42 10° WSW 21:28:59 59° NW 21:32:17 10° NE visible
04 Oct - 23:04:23 10° NW 23:06:14 14° NNW 23:08:05 10° NNE night (unlit)
05 Oct - 02:19:27 10° NNW 02:21:53 19° NNE 02:24:18 10° ENE night (unlit)
05 Oct - 03:55:33 10° NW 03:58:52 72° SW 04:02:10 10° SE night (unlit)
05 Oct - 20:36:28 10° SW 20:39:47 74° SE 20:43:06 10° NE visible
05 Oct - 22:14:23 10° WNW 22:16:47 18° NNW 22:19:12 10° NNE night (unlit)
06 Oct - 01:30:33 10° NNW 01:32:26 14° NNE 01:34:18 10° NE night (unlit)
06 Oct - 03:06:22 10° NW 03:09:40 61° NE 03:12:57 10° ESE night (unlit)
06 Oct - 04:44:23 10° W 04:45:58 13° SW 04:47:33 10° SSW night (unlit)
06 Oct - 19:47:31 10° SSW 19:50:37 38° SE 19:53:45 10° ENE visible
06 Oct - 21:24:32 10° W 21:27:23 26° NNW 21:30:14 10° NNE visible
06 Oct - 23:04:36 10° NNW 23:04:59 10° N 23:05:22 10° N night (unlit)
07 Oct - 00:41:44 10° N 00:42:55 11° NNE 00:44:06 10° NNE night (unlit)
07 Oct - 02:17:16 10° NW 02:20:22 36° NNE 02:23:28 10° E night (unlit)
07 Oct - 03:54:13 10° WNW 03:56:55 23° SW 03:59:37 10° S night (unlit)
07 Oct - 18:58:57 10° S 19:01:30 21° SE 19:04:04 10° E daylight
07 Oct - 20:34:51 10° WSW 20:38:00 39° NNW 20:41:10 10° NE visible
07 Oct - 22:14:04 10° NW 22:15:25 12° NNW 22:16:46 10° N night (unlit)
08 Oct - 01:28:13 10° NNW 01:30:59 24° NNE 01:33:44 10° E night (unlit)
08 Oct - 03:04:37 10° WNW 03:07:47 43° SW 03:10:57 10° SSE night (unlit)
08 Oct - 18:11:18 10° SSE 18:12:26 11° SE 18:13:33 10° ESE daylight
08 Oct - 19:45:23 10° WSW 19:48:41 70° NW 19:52:00 10° NE visible
08 Oct - 21:23:52 10° NW 21:25:52 15° NNW 21:27:52 10° NNE visible
09 Oct - 00:39:13 10° NNW 00:41:31 17° NNE 00:43:48 10° ENE night (unlit)
09 Oct - 02:15:14 10° NW 02:18:34 85° SW 02:21:52 10° SE night (unlit)
09 Oct - 18:56:07 10° SW 18:59:24 62° SE 19:02:42 10° ENE daylight
09 Oct - 20:33:48 10° WNW 20:36:20 20° NNW 20:38:52 10° NNE visible
09 Oct - 23:50:15 10° NNW 23:51:57 13° NNE 23:53:40 10° NE night (unlit)
10 Oct - 01:25:59 10° NW 01:29:15 52° NE 01:32:29 10° ESE night (unlit)
10 Oct - 03:03:36 10° W 03:05:36 15° SW 03:07:36 10° SSW night (unlit)
10 Oct - 18:07:10 10° SSW 18:10:10 32° SE 18:13:11 10° ENE daylight
10 Oct - 19:43:55 10° W 19:46:51 28° NNW 19:49:48 10° NNE visible
10 Oct - 21:23:41 10° NNW 21:24:24 11° N 21:25:07 10° N visible
10 Oct - 23:01:22 10° N 23:02:20 11° N 23:03:18 10° NNE night (unlit)
